Theta_e
311 311 311 310 309 309 308 307 306 306 305 305 304 304 304 304 303 304 303 303 302 302 301 301 301 301 301 299 299 299 299 300 299 297 296 296 295 295 295 295 296 298 297
308 309 310 310 308 307 306 306 305 305 304 304 304 304 304 303 303 303 302 302 302 302 302 302 301 301 301 300 298 299 298 298 298 297 297 297 298 297 297 296 296 296 298
308 307 307 307 307 307 306 306 305 304 304 303 303 303 303 303 303 303 303 303 302 302 302 302 301 301 301 301 301 300 299 300 299 298 298 297 297 297 297 296 296 296 298
306 305 305 305 306 305 304 303 303 302 302 302 302 303 303 302 302 302 302 303 303 303 303 303 303 303 303 302 302 302 301 300 299 298 298 298 298 298 297 296 295 296 295
304 304 304 303 303 304 305 303 302 302 301 301 301 300 301 301 301 302 303 303 300 300 301 301 302 304 306 304 303 304 304 301 299 298 298 298 297 297 296 296 295 294 295
305 305 305 304 303 302 303 304 302 301 300 301 302 302 302 303 302 302 302 302 301 299 298 299 299 301 303 303 303 305 304 302 301 299 298 297 298 297 295 294 294 294 293
305 304 304 304 303 301 300 300 302 300 300 302 302 302 302 302 301 301 302 302 299 301 302 302 303 302 303 304 304 304 303 304 303 301 299 299 298 294 294 294 294 293 293
304 305 306 305 305 305 304 303 301 302 301 300 300 301 301 302 303 303 304 304 303 304 303 304 303 304 304 304 305 304 305 305 303 300 297 295 294 295 295 295 295 294 294
307 307 307 307 306 306 305 305 304 304 303 304 304 304 304 304 304 305 305 306 305 305 305 305 304 303 305 305 303 304 301 300 298 297 295 295 295 295 295 295 295 294 294
308 307 307 307 306 305 305 305 305 304 305 305 305 305 305 306 306 305 305 306 306 306 307 306 304 304 303 304 301 297 296 297 298 296 295 295 295 296 296 295 295 294 294
308 308 308 307 306 306 305 305 305 305 305 306 306 306 307 307 307 307 307 307 307 307 306 304 304 304 301 299 297 297 297 297 295 294 295 296 296 295 295 295 294 294 293
307 307 307 307 306 306 306 307 307 307 307 307 307 307 307 308 308 308 308 308 307 307 305 304 304 302 301 298 297 297 296 294 295 296 296 295 295 295 294 293 293 292 291
308 307 307 306 306 306 307 306 307 307 307 308 308 308 309 308 307 306 306 306 305 304 303 302 301 300 299 298 296 295 295 296 295 294 294 294 294 294 293 292 291 291 292
306 306 306 307 308 308 308 308 308 308 308 308 308 308 308 307 306 303 304 303 303 300 300 301 301 299 298 296 293 296 296 295 295 294 294 293 292 293 292 291 291 291 291
306 306 306 307 308 308 308 308 308 308 309 309 308 308 308 307 303 302 302 301 300 299 297 297 297 296 292 294 295 296 296 295 294 294 294 293 293 292 291 291 291 290 289
307 307 307 307 307 308 309 309 309 309 308 308 308 307 305 302 301 299 299 298 296 294 294 293 292 292 293 294 295 296 296 295 295 294 293 292 292 291 291 291 290 288 288
306 306 306 308 309 309 308 309 309 309 308 307 307 305 302 299 300 298 296 294 294 294 293 293 292 294 295 296 295 295 296 295 295 294 292 291 291 291 290 289 288 287 288
306 307 307 308 309 309 309 309 309 308 308 307 306 306 304 302 299 298 296 294 294 294 294 294 295 296 296 296 296 296 295 294 294 292 291 291 291 290 289 288 287 287 287
308 308 309 309 309 309 309 307 307 308 308 307 306 305 305 305 302 298 297 295 295 295 295 295 295 295 295 296 296 295 294 294 292 292 291 291 290 289 288 287 286 287 287
309 309 309 309 309 309 309 306 304 304 305 306 306 305 305 304 302 299 297 296 295 295 296 295 296 296 296 296 295 294 294 293 294 292 291 290 290 288 287 287 286 286 286
310 309 308 307 308 308 306 305 304 303 303 304 304 305 305 305 304 303 301 298 297 296 296 296 296 296 296 295 295 294 294 294 293 292 291 290 288 287 287 286 286 286 286
308 308 307 306 306 306 305 305 305 304 303 304 304 304 305 303 303 302 302 300 299 297 296 296 296 297 296 295 295 294 294 294 293 292 290 289 288 287 287 286 285 285 285
308 307 306 306 306 306 306 305 305 305 305 304 304 303 302 302 301 301 300 299 297 298 298 297 297 296 296 295 294 294 294 294 293 290 289 288 287 287 287 286 285 285 285
307 306 306 306 306 304 303 302 302 302 303 302 302 302 301 301 299 297 298 299 301 299 298 297 296 296 296 294 293 294 294 293 292 289 288 288 287 287 286 285 285 285 285
307 307 306 306 305 304 302 303 302 301 299 299 298 297 296 296 297 297 298 300 299 298 297 297 294 295 295 295 293 294 293 291 289 288 288 287 287 286 285 285 285 285 285
307 306 305 304 304 303 303 301 299 297 296 294 294 294 294 294 295 297 297 298 296 296 296 295 294 293 293 293 292 291 290 289 288 288 287 287 286 285 285 284 285 285 285
Wind_Speed
28 27 27 25 26 28 29 26 23 20 17 17 16 14 14 15 14 16 15 14 15 15 14 14 14 13 13 12 10 10 9 8 4 5 12 18 21 22 23 21 19 19 23
24 26 25 27 27 27 26 22 21 20 17 15 14 14 15 14 13 15 15 14 14 13 12 10 10 7 8 10 8 10 7 5 6 5 9 18 22 24 27 28 27 25 18
22 22 21 22 23 23 21 20 19 19 19 17 17 14 13 13 13 12 11 12 11 7 7 6 4 3 3 2 5 4 6 6 7 9 12 18 20 26 31 29 27 24 20
22 17 16 16 16 17 18 18 18 17 17 16 15 14 12 11 9 9 10 9 7 5 4 1 2 5 8 9 8 9 8 10 10 12 16 20 24 31 28 27 30 27 29
18 15 15 12 11 12 14 15 13 12 10 10 9 8 9 10 6 4 8 6 1 1 4 4 6 8 8 9 14 17 17 15 16 16 16 20 25 25 25 27 26 28 31
14 15 13 14 13 9 8 11 11 10 12 10 7 6 3 2 3 1 9 5 6 7 8 8 9 11 12 13 13 19 16 18 21 20 19 17 23 25 28 27 30 23 17
11 11 12 13 9 9 8 9 9 7 8 7 5 5 7 7 6 10 9 11 11 10 10 12 14 12 12 15 19 20 20 23 23 21 21 23 26 24 27 31 28 26 28
14 12 12 14 11 9 8 7 8 7 6 5 7 9 10 10 11 11 13 16 18 18 18 17 17 16 17 20 23 25 26 24 19 16 19 24 22 23 28 33 33 34 32
12 15 14 15 13 10 11 11 9 9 8 10 9 9 13 13 11 13 14 16 21 23 22 23 23 21 20 18 22 20 13 12 14 19 23 20 22 27 29 33 31 22 25
17 17 17 17 15 14 14 12 13 14 13 12 12 13 13 14 13 16 17 20 22 25 25 24 19 18 14 14 11 9 14 19 23 25 25 25 27 28 27 29 29 24 23
20 20 20 21 19 16 15 17 15 15 15 15 16 15 17 19 19 19 19 19 20 21 21 20 15 14 12 13 10 15 21 25 27 27 26 26 26 26 26 18 18 26 29
13 14 17 15 16 16 16 11 10 10 11 12 14 15 16 16 17 17 17 18 18 17 17 16 13 14 14 12 18 22 25 26 23 22 20 22 24 25 17 21 22 27 33
10 11 10 12 12 10 6 9 8 8 10 12 13 15 15 12 12 10 10 9 9 10 12 13 12 11 13 17 20 24 20 16 11 16 19 21 22 20 20 22 30 30 32
9 8 8 8 7 7 8 10 10 12 13 14 14 15 13 11 12 11 8 9 11 11 12 11 11 13 16 21 19 13 10 13 16 18 19 19 23 23 20 27 30 32 33
10 11 10 9 11 12 12 13 14 16 15 16 16 13 12 13 11 8 8 8 10 10 11 13 15 18 17 14 13 13 15 17 18 18 19 21 21 18 25 28 26 28 27
12 14 15 14 14 15 16 17 16 15 13 12 11 11 13 13 9 8 9 9 9 10 12 15 18 17 17 17 18 18 20 19 17 19 18 17 16 22 26 22 24 28 26
21 20 20 19 18 18 16 16 17 14 12 13 15 14 14 14 13 12 10 10 12 13 16 17 18 19 21 24 24 22 20 16 18 18 14 13 17 20 15 23 26 26 27
27 27 25 24 21 21 16 16 20 19 19 19 18 19 20 20 20 19 17 17 19 20 20 18 21 22 21 21 20 22 18 17 16 8 12 15 16 12 18 25 25 24 26
30 31 27 26 22 20 16 15 14 20 23 23 20 20 23 26 27 24 22 26 28 26 25 24 24 23 20 21 17 15 14 10 8 12 14 14 10 13 20 26 24 25 27
23 21 20 21 19 18 18 17 18 20 22 26 29 29 27 24 31 34 36 36 35 35 31 28 27 24 20 15 12 10 10 10 12 13 13 10 12 15 21 25 24 24 25
20 17 15 14 19 19 20 19 18 19 21 22 30 29 27 32 36 40 42 43 45 43 39 34 31 21 19 18 15 13 13 14 13 13 12 11 12 18 22 25 26 23 24
22 20 15 14 15 19 22 22 23 22 23 24 27 27 26 26 32 38 40 43 42 40 38 35 33 26 24 21 15 12 11 12 13 13 12 11 13 17 21 26 26 23 23
23 19 18 18 18 17 19 21 22 27 33 33 28 24 23 23 29 33 32 30 28 28 34 36 32 29 18 15 13 11 12 12 14 12 11 11 13 17 22 24 25 24 22
27 25 23 21 19 17 18 17 15 6 3 5 5 7 10 11 15 22 24 22 25 26 19 25 27 22 16 12 11 15 14 12 13 10 10 10 13 19 22 23 24 24 23
30 27 24 23 22 22 13 5 4 4 4 6 9 13 17 18 18 17 20 27 23 21 24 26 21 14 11 9 10 17 13 11 9 9 9 11 15 19 21 21 24 23 22
32 27 25 24 19 10 8 8 6 6 8 9 9 11 14 16 17 16 13 10 7 4 4 10 11 9 7 7 10 9 8 9 9 8 11 14 18 20 19 21 22 21 20
Wind_Direction
114 118 118 126 130 133 138 143 141 142 144 139 136 137 127 128 125 120 112 110 104 97 90 89 87 90 82 71 73 66 62 64 74 348 351 357 0 359 356 350 343 333 331
130 124 120 124 131 132 137 143 141 138 135 136 136 131 125 123 128 121 117 114 107 99 93 90 89 86 82 58 59 53 59 45 17 328 339 345 347 351 348 343 342 335 330
128 126 134 128 129 128 134 134 140 138 138 141 140 134 131 126 123 127 122 111 112 109 93 73 68 61 42 13 12 1 4 354 329 317 318 326 327 339 340 335 337 330 323
136 131 124 124 128 129 133 129 131 138 140 142 140 139 147 145 140 136 133 129 115 94 75 320 332 329 312 302 300 307 297 292 291 292 304 316 325 334 334 331 326 321 316
131 134 143 148 155 156 152 146 146 145 142 149 150 142 148 142 133 176 171 155 146 283 289 291 293 283 297 287 286 302 300 285 280 281 293 308 316 322 322 320 313 312 312
151 156 157 163 163 164 163 161 159 169 166 162 163 179 196 193 225 185 204 272 285 275 287 296 299 294 280 279 285 296 281 276 275 277 290 294 300 308 315 315 312 313 316
157 155 170 178 168 160 166 181 174 174 193 199 204 212 225 245 247 233 227 273 270 270 278 295 307 298 301 302 301 299 284 284 279 278 283 290 292 308 313 313 309 297 289
167 196 202 200 200 193 181 189 181 197 208 206 219 227 242 252 251 254 264 272 273 277 278 284 287 293 298 301 303 302 295 289 274 273 283 295 297 307 309 307 305 298 291
214 214 219 217 211 209 211 218 213 220 225 234 238 244 254 264 263 265 270 274 272 273 276 277 275 281 290 302 298 292 287 276 280 298 302 298 300 305 307 307 304 301 300
236 231 229 220 208 210 218 218 226 228 239 245 256 261 267 276 277 273 271 272 276 280 286 286 285 288 291 296 287 291 294 295 306 306 307 302 304 305 304 304 309 291 286
247 241 237 233 224 224 229 232 236 241 247 254 258 267 273 275 279 278 273 268 266 270 271 270 256 265 297 291 255 301 294 304 307 306 307 307 306 304 306 306 307 297 294
229 219 220 215 222 220 228 222 218 228 238 251 259 269 274 277 277 282 274 270 269 264 261 267 273 273 281 269 276 292 301 307 305 304 305 305 306 306 302 307 306 309 308
198 164 174 186 194 201 219 221 236 252 260 267 271 276 280 279 282 285 285 274 264 257 261 269 264 269 279 278 287 298 304 307 301 297 295 295 307 304 302 309 318 317 314
177 185 187 183 193 222 237 250 256 260 259 264 271 268 262 265 274 274 253 252 260 269 268 265 271 274 278 289 294 300 287 283 278 281 287 300 312 307 307 319 317 320 317
206 208 207 222 234 247 258 265 269 273 267 264 260 254 244 256 269 260 257 267 275 276 266 270 274 280 289 287 292 299 291 282 274 285 288 297 307 306 313 318 318 321 314
215 223 237 240 250 259 264 272 267 260 263 257 248 245 245 245 237 242 240 252 256 259 268 274 278 280 283 284 291 296 298 281 281 284 285 301 305 313 315 318 322 324 307
234 236 236 241 244 249 265 272 245 239 238 236 235 242 239 241 232 228 235 235 239 250 258 270 270 277 285 292 291 292 286 281 294 284 288 304 314 311 315 324 327 319 311
230 234 239 240 248 254 259 263 245 235 228 240 244 243 239 238 235 231 230 229 235 238 247 252 259 269 281 292 284 284 273 290 295 275 296 306 305 308 323 328 324 315 314
234 240 241 242 246 251 252 251 249 244 242 251 254 251 244 242 240 234 233 238 242 243 241 243 250 258 269 285 273 264 280 282 276 290 294 297 295 317 324 329 322 316 315
232 241 239 243 242 246 238 252 260 254 252 254 246 250 256 243 232 230 231 236 242 247 249 250 254 259 266 246 243 263 269 267 296 287 290 278 301 319 325 329 322 317 315
217 216 217 233 236 234 240 255 262 259 268 267 254 260 260 253 246 235 235 237 240 244 247 249 248 247 233 232 245 264 273 275 282 286 272 284 308 320 326 329 325 319 313
208 214 229 238 246 245 249 257 267 263 260 262 258 262 268 267 254 246 245 244 244 247 255 260 260 224 229 237 259 258 273 278 289 272 268 290 311 320 327 329 327 320 316
215 220 223 233 241 250 260 266 274 277 275 278 285 293 298 287 264 254 253 255 256 261 263 262 248 224 233 255 268 255 273 283 295 265 276 297 314 322 328 328 327 321 318
217 219 225 237 241 247 259 270 288 319 31 63 24 358 352 343 315 292 273 264 271 267 262 250 231 228 244 252 272 291 289 280 276 264 282 301 316 323 327 326 326 322 317
221 218 222 230 243 253 266 178 147 100 49 18 360 351 344 340 333 309 304 299 281 279 273 244 219 226 240 247 266 281 275 267 257 267 281 307 318 322 323 322 324 322 320
221 226 231 235 242 234 217 169 141 99 69 52 37 16 1 348 339 317 305 284 277 3 189 208 212 222 229 271 256 255 247 240 255 268 299 312 317 318 319 320 323 321 317